Regional Weather Roundup
Issued by NWS

Current Version | Previous Version | Text Only | Print | Product List | Glossary On
Versions: 1 2 3 4 5 6 7 8 9 10 11 12 13 14 15 16 17 18 19 20 21 22 23 24 25 26 27 28 29 30 31 32 33 34 35 36 37 38 39 40 41 42 43 44 45 46 47 48 49 50
000
ASUS43 KMPX 080610
RWRMN
WEATHER ROUNDUP FOR MINNESOTA
NATIONAL WEATHER SERVICE TWIN CITIES/CHANHASSEN MN
100 AM CDT WED JUL 08 2015


NOTE: "FAIR" INDICATES FEW OR NO CLOUDS BELOW 12,000 FEET WITH NO
SIGNIFICANT WEATHER AND/OR OBSTRUCTIONS TO VISIBILITY. N/A MEANS
CURRENT SKY AND/OR WEATHER CONDITIONS ARE NOT AVAILABLE.

MNZ060>063-068>070-080700-
   Twin Cities Metro

CITY           SKY/WX    TMP DP  RH WIND       PRES   REMARKS
TWIN CITIES    PTCLDY    63  50  62 CALM      30.12S
6HR MIN TEMP:  60; 6HR MAX TEMP:  71;

ST PAUL        MOCLDY    57  52  83 CALM      30.12S
CRYSTAL        PTCLDY    57  51  80 CALM      30.10S
BLAINE         PTCLDY    57  54  88 CALM      30.12S
LAKEVILLE      PTCLDY    52  52 100 CALM      30.12S
EDEN PRAIRIE   PTCLDY    60  51  72 CALM      30.11S
6HR MIN TEMP:  59; 6HR MAX TEMP:  71;

SOUTH ST PAUL  PTCLDY    58  52  80 CALM      30.12R
LAKE ELMO      FAIR      54  54 100 CALM      30.12F
$$
MNZ001>005-007-008-013>017-022>024-027-028-080700-
   Northwest Minnesota

CITY           SKY/WX    TMP DP  RH WIND       PRES   REMARKS
BEMIDJI        CLEAR     54  46  75 SW3       30.07S
HALLOCK        PTCLDY    57  52  82 S10       29.96F
ROSEAU         CLEAR     55  48  76 S8        30.00F
WARROAD        CLEAR     55  48  76 S5        30.01F
THIEF RVR FALL CLEAR     54  46  76 S5        30.03F
CROOKSTON      CLEAR     57  48  72 S10       30.02F
FOSSTON        CLEAR     48  46  93 S6        30.05F
DETROIT LAKES  CLEAR     55  50  82 S5        30.08F
MOORHEAD       PTCLDY    57  50  77 S9        30.05F
PARK RAPIDS    CLEAR     56  45  66 S3        30.08F
MAHNOMEN       FAIR      53  47  79 S8        30.05F
$$
MNZ006-009>011-018-025>026-080700-
   North Central Minnesota

CITY           SKY/WX    TMP DP  RH WIND       PRES   REMARKS
BAUDETTE       CLEAR     53  46  77 SW6       30.02F
FLAG ISLAND    CLEAR     64  52  63 S8        29.99F
INTL FALLS     CLEAR     45  44  97 S3        30.04F
6HR MIN TEMP:  44; 6HR MAX TEMP:  72;

WASKISH        CLEAR     48  46  93 CALM      30.05F
BIG FORK       CLEAR     46  45  93 CALM      30.07F
LONGVILLE      CLEAR     46  46 100 CALM      30.08F
GRAND RAPIDS   CLEAR     52  45  76 S6        30.08F
CRANE LAKE     CLEAR     46  45  93 S1          N/A
COOK           CLEAR     48  45  87 CALM      30.08S
WALKER         FAIR      48  46  93 CALM      30.07F
$$
MNZ012-019>021-037-080700-
   Northeast Minnesota

CITY           SKY/WX    TMP DP  RH WIND       PRES   REMARKS
DULUTH         CLEAR     54  48  80 W3        30.09F
6HR MIN TEMP:  54; 6HR MAX TEMP:  72;

ELY            CLEAR     46  45  93 CALM      30.08S
HIBBING        CLEAR     44  42  93 CALM      30.08F
EVELETH        CLEAR     45  43  93 CALM      30.10S
DULUTH HARBOR  CLEAR     59  54  82 SW8       30.09F
TWO HARBORS    CLEAR     54  48  82 CALM      30.07F
SILVER BAY     CLEAR     46  45  93 CALM      30.07F
GRAND MARAIS     N/A     49  45  86 CALM      30.07F
G MARAIS ARPRT CLEAR     45  39  81 CALM      30.11F
$$
MNZ029>031-032-039>041-046>048-054>057-064-080700-
   West Central Minnesota

CITY           SKY/WX    TMP DP  RH WIND       PRES   REMARKS
FERGUS FALLS   CLEAR     55  48  76 S6        30.08F
WHEATON        CLEAR     55  48  76 S8        30.10S
MORRIS         CLEAR     55  52  88 CALM      30.09F
ALEXANDRIA     CLEAR     57  50  77 S5        30.11F
ELBOW LAKE     FAIR      53  49  86 S7        30.08F
WADENA         CLEAR     50  46  87 CALM      30.09S
GLENWOOD       CLEAR     52  48  87 S6        30.11S
APPLETON       CLEAR     57  50  77 S5        30.10S
BENSON         CLEAR     54  48  82 S3        30.11S
ORTONVILLE     CLEAR     54  48  82 S5        30.10S
MADISON        CLEAR     54  50  87 S5        30.10F
WILLMAR        FAIR      55  52  88 CALM      30.13S
$$
MNZ033>034-036-042>043-049>051-058-059-080700-
   Central Minnesota

CITY           SKY/WX    TMP DP  RH WIND       PRES   REMARKS
ST CLOUD       CLEAR     52  50  93 CALM      30.11S
6HR MIN TEMP:  52; 6HR MAX TEMP:  71;

SAUK CENTRE    FAIR      51  50  95 S5        30.11S
PAYNESVILLE    CLEAR     49  49  98 CALM      30.12S
AITKIN         CLEAR     46  41  81 CALM      30.08F HAZE
PINE RIVER     CLEAR     48  46  93 CALM      30.12F
BRAINERD       CLEAR     53  48  83 CALM      30.10F
STAPLES        CLEAR     52  46  82 S5        30.09F
LONG PRAIRIE   FAIR      50  50 100 CALM      30.11S
LITTLE FALLS   CLEAR     54  48  82 CALM      30.11S
LITCHFIELD     CLEAR     57  54  88 CALM      30.12S
BUFFALO        CLEAR     55  50  84 CALM      30.13S
MAPLE LAKE     CLEAR     53  52  97 CALM      30.13S
$$
MNZ037-044-045-052-053-080700-
   East Central Minnesota

CITY           SKY/WX    TMP DP  RH WIND       PRES   REMARKS
PRINCETON      CLEAR     52  50  93 CALM      30.12S
MORA           CLEAR     50  50 100 CALM      30.13S FOG
CAMBRIDGE      CLEAR     54  46  76 CALM      30.10S
RUSH CITY      MOCLDY    50  49  95 SE3       30.11F
MOOSE LAKE     CLEAR     46  46 100 CALM      30.09S
HINCKLEY       FAIR      50  50 100 CALM      30.11S
CLOQUET        CLEAR     50  45  81 CALM      30.10S
MCGREGOR       CLEAR     50  48  93 CALM      30.10S
$$
MNZ071>073-080-081-089-090-097-098-080700-
   Southwest Minnesota

CITY           SKY/WX    TMP DP  RH WIND       PRES   REMARKS
MONTEVIDEO     CLEAR     55  50  82 SW3       30.13S
GRANITE FALLS  CLEAR     52  50  91 CALM      30.14R
CANBY          CLEAR     56  49  79 S3        30.13R
MARSHALL       CLEAR     54  46  76 SW5       30.11S
REDWOOD FALLS  CLEAR     57  51  80 CALM      30.11S
OLIVIA         CLEAR     54  46  76 CALM      30.11S
PIPESTONE      PTCLDY    57  50  77 S5        30.12S
WINDOM         PTCLDY    55  48  76 CALM      30.13S
WORTHINGTON    CLEAR     54  46  76 SE5       30.13S
JACKSON        PTCLDY    54  50  87 CALM      30.13F
TRACY          CLEAR     58  52  79 S3        30.13R
SLAYTON        CLEAR     53  52  94 CALM      30.14R
$$
MNZ065>067-074>077-082>085-091>093-080700-
   South Central Minnesota

CITY           SKY/WX    TMP DP  RH WIND       PRES   REMARKS
MANKATO        CLEAR     59  48  67 S6        30.12F
NEW ULM        CLEAR     55  52  88 CALM      30.12S
ST JAMES         N/A     54  52  94 S3        30.13S
FAIRMONT       MOCLDY    55  46  71 CALM      30.12F
GLENCOE        CLEAR     55  53  93 CALM      30.12S
FARIBAULT      PTCLDY    54  52  94 CALM      30.13S
OWATONNA       PTCLDY    52  50  93 CALM      30.13S
WASECA         PTCLDY    52  50  93 CALM      30.14S
ALBERT LEA     MOCLDY    54  54 100 CALM      30.13F
$$
MNZ078>079-086>088-094>096-080700-
   Southeast Minnesota

CITY           SKY/WX    TMP DP  RH WIND       PRES   REMARKS
ROCHESTER      MOCLDY    56  51  84 SW6       30.14S
6HR MIN TEMP:  55; 6HR MAX TEMP:  66;

RED WING       MOCLDY    55  52  88 CALM      30.11S
STANTON        PTCLDY    54  52  94 CALM      30.12R
DODGE CENTER   MOCLDY    54  52  94 CALM      30.13S
WINONA         CLOUDY    55  54  94 CALM      30.12S
AUSTIN         CLOUDY    57  54  88 CALM      30.13S
PRESTON        MOCLDY    56  51  84 CALM      30.14S
$$
ABBREVIATIONS USED IN REMARKS
   TC - TEMPERATURES IN CELSIUS
  WCI - WIND CHILL INDEX
   HX - HEAT INDEX
  VSB - VISIBILITY
$$


USA.gov is the U.S. government's official web portal to all federal, state and local government web resources and services.